GFSCGP_925_spd_159.txt.gz
Wind_Speed
14 11 16 19 19 15 17 13 17 13 11 5 15 18 19 17 18 18 17 17 18 20 22 21 16 8 12 15 16 17 18 18 17 17 19 19 20 21 21 22 24 24 22 21
11 17 19 18 18 19 18 17 15 11 3 4 15 21 20 20 19 19 19 19 20 19 16 13 9 11 12 14 14 15 15 16 16 17 18 18 17 18 18 20 24 26 25 23
22 3 19 14 16 18 20 20 16 15 11 13 16 24 23 24 24 21 20 20 18 15 13 8 7 7 9 11 13 14 14 13 13 13 14 15 15 14 11 13 14 15 15 18
18 21 11 19 18 16 19 16 15 13 11 10 5 8 13 7 10 13 15 14 15 12 2 2 4 5 8 10 10 11 11 9 7 8 12 14 14 13 11 9 8 7 8 12
12 17 19 18 20 18 13 9 9 11 13 15 18 11 10 11 11 10 9 11 11 3 1 2 4 5 8 10 11 11 11 13 12 7 1 7 10 5 2 2 2 2 2 3
20 1 13 22 8 17 7 5 4 5 8 12 17 14 15 16 18 18 3 1 4 3 3 4 4 4 7 9 10 12 13 15 17 18 17 13 12 11 11 10 10 10 9 7
16 14 6 5 18 13 17 12 5 6 7 10 4 12 22 1 1 4 5 2 5 5 4 4 3 5 7 9 11 11 13 16 16 19 20 19 18 17 16 13 12 11 11 11
11 8 17 12 16 10 21 17 7 8 9 9 13 11 12 9 12 4 3 5 8 7 6 5 4 4 6 7 9 11 12 14 15 16 17 17 15 14 14 14 12 12 11 12
13 12 5 16 13 14 14 17 17 13 1 5 10 9 11 7 9 8 8 7 8 7 6 6 6 5 5 7 9 10 10 12 14 14 15 16 15 15 14 13 12 11 12 13
6 4 9 11 9 14 12 8 9 4 7 12 14 18 13 15 16 11 11 12 10 8 8 7 7 6 5 6 7 9 10 11 12 13 13 14 14 14 13 13 15 14 14 15
8 6 5 7 15 17 12 10 8 7 9 7 13 14 12 10 13 14 14 12 11 10 10 9 9 8 6 5 6 7 9 9 11 11 12 13 13 13 13 14 14 14 14 15
20 7 9 15 5 17 18 21 18 7 9 5 5 12 4 3 6 9 11 12 12 13 12 11 11 10 8 6 5 6 7 8 9 10 11 12 12 13 13 14 14 14 14 15
15 7 5 6 7 12 14 20 22 19 4 14 12 16 4 7 8 8 10 12 13 14 14 12 13 12 10 8 5 6 6 7 9 8 10 11 12 12 13 14 13 13 13 14
14 13 15 17 18 11 14 22 22 20 13 20 19 26 23 13 13 11 12 14 15 16 15 13 12 13 12 8 7 5 6 6 6 8 9 10 11 12 11 12 13 13 13 13
9 8 21 23 21 20 16 22 23 23 25 18 23 18 27 24 19 15 17 15 17 17 17 16 14 13 13 10 7 6 5 5 5 6 8 8 9 9 10 11 11 12 12 12
16 8 14 17 21 21 24 20 16 25 27 24 27 27 27 20 18 16 15 16 18 18 19 18 16 17 16 13 10 7 6 5 5 6 7 7 9 9 10 10 10 11 11 12
17 9 8 16 15 17 19 26 26 21 22 24 23 29 26 25 23 16 13 18 21 21 20 18 17 19 17 14 11 9 7 6 7 5 7 8 8 8 9 9 9 10 11 10
12 19 9 11 11 18 16 18 23 29 28 26 26 27 28 22 17 14 15 19 20 19 19 18 19 20 17 14 12 11 9 7 8 6 9 6 7 8 8 8 8 10 9 9
4 2 7 8 15 21 6 12 22 24 29 27 29 30 27 23 16 19 18 17 19 19 18 20 22 20 17 15 13 12 10 8 7 7 6 5 6 6 7 7 8 8 8 8
18 11 7 6 6 7 13 24 11 14 15 31 22 26 27 24 12 22 9 11 12 18 22 24 24 20 17 14 14 13 13 11 8 5 5 5 6 6 7 5 6 6 6 7
10 13 17 16 10 9 10 6 11 12 12 7 17 24 26 17 22 9 7 5 14 20 23 23 22 20 17 17 15 11 10 9 7 5 5 5 6 6 3 3 4 5 6 5
12 8 10 10 11 17 4 6 15 10 7 5 3 8 11 13 3 7 12 13 15 17 23 22 22 18 16 16 16 13 12 8 7 6 6 6 5 4 1 3 3 2 3 4
14 14 11 9 6 2 4 5 10 9 12 7 5 5 7 7 9 13 13 15 13 20 20 18 19 19 13 14 14 15 12 9 8 7 6 5 4 3 2 2 2 2 4 7
8 13 11 15 15 17 14 9 10 9 11 9 8 8 5 6 11 13 13 13 14 18 18 20 20 17 15 12 12 12 11 9 9 8 6 5 4 3 2 3 3 4 6 7
10 7 10 11 13 13 12 10 10 7 7 10 8 6 7 7 11 12 12 12 13 18 18 20 18 18 17 14 12 11 11 10 9 8 6 5 4 3 3 3 3 4 4 5
7 8 6 7 8 5 2 7 7 5 6 8 6 3 1 7 9 8 10 14 16 16 19 17 17 18 17 15 12 11 10 10 10 7 6 5 4 3 3 3 2 1 2 4

GFSCGP_925_spd_162.txt.gz
Wind_Speed
8 5 12 11 12 9 10 9 8 7 8 6 8 9 10 9 9 10 10 9 9 9 11 16 2 12 8 7 10 14 17 18 18 19 20 21 24 25 24 27 24 24 26 24
6 14 10 9 8 11 12 12 10 7 5 2 5 11 15 14 15 14 10 9 9 8 8 8 15 14 11 10 11 13 13 16 17 17 19 19 22 21 22 24 22 24 23 24
15 1 17 13 12 13 13 14 8 7 6 5 4 14 19 17 23 16 11 9 7 8 8 5 13 15 12 11 11 12 12 12 11 13 16 17 16 15 12 10 17 18 15 14
13 18 11 15 14 14 15 9 13 11 6 5 6 6 12 7 3 8 13 13 10 8 6 7 11 13 10 8 8 10 11 11 10 10 7 10 12 11 11 11 3 7 10 10
8 12 19 13 15 8 6 5 9 8 6 6 12 6 5 11 9 8 8 8 9 8 8 8 10 9 6 6 7 9 10 12 12 11 10 6 8 9 10 10 10 9 8 7
12 3 7 16 6 9 6 3 3 1 2 8 12 10 7 10 10 8 5 8 9 8 8 9 9 8 8 6 7 9 11 14 14 13 14 13 13 12 13 13 14 12 9 9
10 13 2 2 11 6 5 8 2 2 2 6 9 12 15 7 4 0 11 9 8 7 7 7 7 8 6 7 8 9 12 15 15 15 18 18 16 14 16 14 11 11 10 12
10 6 16 9 9 10 13 13 5 7 5 3 13 9 6 6 8 7 8 8 8 8 7 7 8 8 8 7 8 9 10 13 14 15 14 16 15 14 15 15 13 13 14 14
9 7 6 14 7 16 10 17 13 6 2 2 5 6 8 6 5 6 7 7 8 8 8 7 9 9 9 8 7 8 10 11 12 13 13 15 15 15 14 12 12 13 11 11
2 1 9 7 6 7 5 6 9 3 4 4 6 8 10 4 7 8 8 9 9 9 9 8 9 10 8 7 7 8 9 10 10 11 12 14 14 13 12 12 13 13 12 12
5 2 2 8 10 15 10 6 6 5 6 4 4 5 3 6 12 14 11 8 9 9 8 8 11 13 10 8 7 7 8 7 9 8 9 11 11 11 11 12 12 12 12 13
9 4 5 11 5 12 16 16 15 7 8 5 12 17 5 7 4 6 8 7 8 9 8 8 13 15 13 11 9 8 8 8 8 6 7 9 9 9 10 11 11 11 11 12
13 5 3 2 4 7 9 15 18 17 1 14 10 13 11 8 3 4 6 8 7 8 8 8 11 15 18 16 13 10 7 6 7 6 6 8 8 8 9 10 10 11 12 14
15 5 13 17 13 8 10 14 19 18 11 18 17 25 18 13 6 6 7 8 9 9 10 9 8 13 19 17 14 12 9 7 6 6 6 7 7 7 8 9 10 11 13 14
10 8 13 17 13 10 10 16 20 19 24 17 23 18 26 19 12 8 11 9 9 13 13 12 13 10 19 20 17 14 12 10 8 7 7 7 6 6 8 10 10 12 14 15
7 5 5 8 15 16 18 16 13 22 23 19 24 25 26 15 8 9 14 16 17 14 16 17 13 15 18 21 21 18 16 13 11 10 9 8 7 6 7 9 11 12 13 14
9 6 6 13 11 12 13 21 23 19 18 20 21 26 20 22 23 18 17 12 18 19 19 19 20 19 23 25 26 22 19 16 14 12 9 8 8 8 7 9 10 11 12 12
8 11 7 10 2 16 12 9 15 25 24 23 22 21 25 27 23 11 8 9 15 18 21 17 17 24 25 29 25 23 19 17 15 12 9 9 8 8 7 8 10 11 10 11
1 3 7 9 13 13 9 11 16 13 23 19 22 28 30 24 14 18 21 13 13 16 15 23 28 25 28 30 26 22 19 18 16 13 11 9 10 8 8 8 7 8 8 9
10 4 7 5 9 12 18 18 14 3 11 22 18 19 22 25 14 17 25 9 12 10 18 22 29 30 30 30 27 22 18 17 16 13 11 10 11 11 9 7 6 7 8 7
9 8 16 13 10 4 9 7 4 7 10 3 3 7 18 14 12 20 3 4 4 9 23 28 28 25 26 29 26 19 17 16 14 14 11 11 10 10 8 9 7 8 8 7
11 8 6 7 8 14 9 2 9 5 3 0 1 2 4 5 8 2 5 8 9 14 20 21 22 21 24 23 21 18 16 15 15 15 13 12 12 9 8 10 8 8 8 7
6 7 4 7 6 4 3 5 3 4 5 5 4 5 4 5 4 6 5 7 7 13 17 20 22 21 20 20 20 18 16 17 16 15 15 13 11 9 10 10 10 7 6 7
5 7 11 12 12 13 9 6 9 7 8 5 4 3 4 6 6 7 8 7 8 12 14 16 20 18 16 18 17 18 19 17 17 17 15 13 11 9 10 8 8 6 7 6
8 4 14 14 7 7 9 7 3 5 5 4 1 3 5 8 7 7 7 9 9 15 16 19 17 17 17 18 18 18 17 17 17 15 14 11 11 11 8 7 8 7 5 4
10 13 7 10 5 7 8 3 4 6 6 6 5 4 4 8 8 9 7 8 13 16 18 18 18 20 19 20 19 17 17 18 17 15 13 12 10 10 8 8 7 5 4 3

GFSCGP_925_spd_165.txt.gz
Wind_Speed
4 4 11 9 7 4 3 3 4 3 5 8 8 7 9 8 5 7 8 8 9 9 10 2 9 9 5 2 4 9 13 15 16 18 17 16 24 28 25 24 24 22 24 24
3 13 7 7 8 7 7 6 4 6 4 1 6 9 9 7 7 8 9 11 10 5 5 13 11 7 5 6 7 8 9 11 12 13 15 14 16 22 25 24 22 22 20 21
11 4 13 7 6 8 6 10 3 5 7 3 4 9 8 8 15 16 17 13 9 11 9 7 11 9 6 8 9 10 10 12 13 13 13 15 11 15 12 14 20 17 16 14
9 13 5 11 8 8 9 6 6 4 3 5 2 8 7 8 10 7 15 16 11 9 5 7 11 9 8 9 7 7 9 11 10 9 8 5 7 6 2 5 5 10 11 9
8 9 15 12 11 8 6 6 8 9 6 3 6 5 5 6 7 8 11 11 12 7 11 9 11 13 10 8 7 6 5 7 8 8 7 6 9 12 12 15 15 14 12 10
9 1 10 11 6 7 7 5 5 5 2 9 8 8 6 9 13 6 6 6 8 9 8 9 15 13 10 7 6 6 6 8 8 8 10 11 13 12 12 11 12 10 9 10
4 10 2 3 12 3 6 7 0 3 5 8 4 9 18 6 7 5 9 10 9 8 9 8 7 11 9 7 6 6 6 10 7 9 9 9 10 10 11 9 9 8 8 9
9 4 12 7 7 10 7 13 5 7 4 3 7 8 6 13 14 7 7 9 8 8 7 8 10 13 11 9 7 6 7 8 6 7 9 9 8 9 10 9 10 10 11 11
8 6 3 5 4 10 6 13 6 3 3 2 4 7 8 6 5 5 7 8 10 9 9 10 12 15 13 12 10 9 7 7 7 8 9 9 10 10 11 11 11 11 11 11
5 1 4 6 5 6 7 6 6 5 3 4 7 6 9 2 6 5 7 10 8 7 8 8 10 16 15 13 12 10 9 9 8 8 9 10 10 10 11 11 11 11 11 11
3 3 1 7 9 13 7 7 6 4 7 5 2 6 7 14 10 10 11 7 9 10 9 9 11 18 17 15 14 13 11 11 10 9 10 10 10 9 10 10 10 10 10 11
8 4 4 13 2 9 19 13 13 5 6 6 6 11 4 7 3 7 9 9 8 8 9 9 14 20 20 19 17 17 14 13 11 11 10 10 10 10 9 10 10 10 11 12
12 4 2 2 3 3 6 12 12 15 0 9 5 15 7 11 13 8 8 7 7 8 9 9 13 17 21 23 21 18 16 15 13 13 12 11 10 10 10 10 10 10 11 13
16 5 12 17 6 7 8 12 16 16 11 19 16 29 20 9 7 2 2 7 8 11 14 14 11 15 21 25 25 22 20 18 16 15 13 13 12 11 10 10 11 12 12 14
11 8 13 16 4 3 8 16 15 18 25 17 23 20 25 16 13 10 11 10 7 11 13 14 13 12 20 24 27 26 23 21 19 18 16 15 14 13 12 12 12 13 13 15
5 4 6 6 7 9 8 6 12 21 20 15 22 22 26 18 15 7 14 10 11 13 17 17 16 16 22 28 29 30 28 24 22 21 19 16 14 13 13 13 14 14 14 15
12 6 4 8 3 4 8 21 23 16 17 16 16 24 19 22 20 17 18 12 15 17 16 17 19 20 28 31 33 33 33 26 23 20 19 17 16 15 15 15 15 15 15 15
7 12 5 8 3 10 10 7 18 23 22 21 23 24 27 24 22 18 11 10 16 15 19 19 16 20 27 33 33 33 33 29 24 21 19 18 18 17 17 16 16 15 14 15
3 5 4 8 13 7 9 12 9 11 21 18 20 26 24 23 17 17 17 13 12 15 15 21 27 27 27 33 35 34 31 28 25 21 19 18 19 18 17 17 16 14 14 14
1 3 7 1 8 13 17 24 9 5 6 20 23 20 20 17 12 16 15 6 11 13 18 18 23 27 29 30 35 32 27 25 22 20 17 17 17 18 19 17 15 15 13 12
7 5 13 14 13 6 10 7 6 9 13 6 10 13 12 7 9 9 6 6 4 3 5 18 27 28 28 34 34 26 26 23 23 22 19 18 16 17 15 16 14 14 15 14
10 7 10 6 10 13 7 3 10 6 2 2 1 5 6 6 7 8 6 5 4 5 11 17 18 19 25 32 32 26 25 27 28 25 22 19 19 15 15 15 15 14 16 17
2 7 4 8 6 6 6 7 5 4 6 4 4 7 9 7 6 7 7 6 5 5 7 13 19 21 22 25 26 23 23 30 27 24 22 20 20 16 15 16 16 15 15 16
4 3 4 1 10 8 8 7 7 5 6 6 4 4 6 6 6 8 5 5 5 8 11 15 18 14 16 25 22 23 28 28 27 26 24 22 20 17 16 16 18 17 17 16
5 5 5 14 10 7 11 8 4 3 4 5 6 3 4 4 7 5 6 7 6 7 9 19 20 17 14 19 23 25 25 26 26 25 23 21 21 20 19 17 16 14 12 13
5 14 8 16 14 9 11 2 1 4 3 3 4 5 4 5 7 5 6 5 7 9 12 10 11 22 21 21 20 22 24 26 25 21 18 17 19 20 20 20 16 11 10 10

GFSCGP_925_spd_168.txt.gz
Wind_Speed
4 6 14 14 16 8 6 4 7 3 3 2 7 11 14 12 5 9 9 8 8 9 10 10 11 14 13 10 7 5 7 9 12 14 14 16 18 17 21 25 26 24 24 23
4 15 6 6 5 7 5 5 4 5 6 5 7 8 9 8 7 8 9 9 11 7 5 11 14 13 12 8 4 4 6 8 9 11 12 14 15 14 15 17 22 19 19 22
6 3 13 8 6 8 5 11 4 5 4 4 4 11 7 7 7 11 10 13 13 15 15 8 12 10 8 6 4 3 4 6 7 9 11 12 13 13 13 11 11 13 15 16
7 7 6 5 9 9 11 6 5 4 0 5 2 12 8 5 8 6 10 13 16 17 8 8 10 10 9 7 4 2 2 4 5 6 7 7 9 7 4 9 9 8 6 7
7 6 12 8 7 6 4 7 7 5 4 4 3 5 5 4 6 9 16 12 10 10 8 11 12 15 10 8 5 3 1 2 4 5 4 1 4 10 11 10 11 9 8 8
7 1 6 10 6 11 6 4 3 2 3 8 10 8 6 9 14 13 7 9 9 6 8 8 15 14 11 9 7 5 2 3 2 2 3 3 8 11 14 13 11 11 10 8
4 13 3 3 7 4 7 10 1 5 4 7 3 10 17 3 7 8 9 11 7 8 10 10 9 13 13 11 9 6 4 3 2 1 3 5 6 8 10 10 9 8 7 6
9 4 13 9 7 5 14 9 5 7 5 4 4 9 6 9 10 8 12 5 6 6 6 8 10 15 15 13 11 8 6 5 4 4 4 5 6 7 7 8 8 7 7 6
6 6 1 3 4 12 5 12 6 3 3 2 5 7 8 9 10 6 6 6 10 10 9 8 10 16 16 14 13 11 10 8 7 6 6 5 6 7 8 8 9 10 10 10
5 1 4 13 3 3 8 7 5 3 3 4 6 6 9 3 8 5 5 9 8 5 7 7 8 13 15 15 14 13 12 11 10 9 8 8 9 10 11 12 12 12 12 11
2 1 1 6 11 15 5 5 5 3 6 5 2 6 7 13 9 7 8 7 6 8 8 7 9 18 18 17 17 17 16 15 13 11 10 10 11 11 12 12 12 12 12 12
8 3 5 11 2 8 15 14 16 6 6 5 8 16 3 5 6 6 7 8 8 8 7 8 12 18 21 22 21 21 18 17 15 14 13 12 12 12 12 12 12 12 12 12
14 5 2 2 4 3 8 13 11 13 2 13 9 16 12 17 14 7 6 8 7 6 7 7 10 15 19 24 25 24 23 21 19 18 17 16 15 14 13 12 12 13 13 14
16 6 9 16 4 7 8 11 17 15 8 14 14 27 15 7 8 6 4 6 5 7 9 11 9 14 20 26 30 29 26 23 23 21 20 18 16 15 14 13 14 14 14 15
8 10 17 15 1 4 8 13 15 18 23 15 22 19 25 18 14 11 13 12 5 9 10 13 13 12 21 22 28 31 31 30 28 25 22 20 18 16 15 15 15 15 16 17
7 5 4 13 9 8 5 3 14 20 20 14 22 24 27 20 12 9 12 7 9 14 16 15 16 15 20 27 29 31 36 36 31 28 26 22 20 18 17 16 17 17 17 18
10 8 5 17 7 6 9 21 17 11 16 15 16 26 23 24 21 20 16 11 17 18 13 16 18 19 28 30 35 36 35 36 34 31 28 25 23 21 19 18 18 19 20 20
6 10 5 4 5 7 7 7 22 24 24 22 19 20 25 26 24 23 10 13 14 14 17 15 15 24 30 31 33 31 35 38 36 32 30 28 26 23 22 20 20 20 20 21
5 8 6 7 6 5 7 9 8 9 18 14 21 27 25 25 21 20 21 9 12 14 14 19 26 29 27 31 34 34 33 35 33 32 32 32 30 27 26 26 24 23 22 20
5 2 5 1 4 6 9 20 8 6 6 19 17 18 20 18 12 18 22 4 8 11 18 19 24 22 25 30 36 33 32 34 34 35 35 34 31 30 29 28 27 25 23 21
5 4 14 14 9 6 13 2 6 5 12 5 6 12 13 9 14 15 4 5 5 8 17 21 14 16 22 28 34 29 30 33 31 32 33 32 31 30 29 28 28 26 23 21
7 6 7 5 7 15 4 4 9 5 5 3 2 5 8 7 7 7 9 8 7 8 11 13 10 7 12 20 25 20 23 24 31 33 33 31 30 28 28 27 26 25 24 24
3 6 5 9 7 1 4 6 3 3 4 5 3 6 8 8 8 7 8 8 7 8 7 7 6 5 8 16 23 20 21 29 31 31 30 29 28 27 27 27 24 22 23 21
3 3 3 2 4 7 9 6 5 6 8 8 5 6 5 9 9 7 7 9 7 7 7 6 6 6 6 11 13 15 22 28 31 29 29 27 25 25 26 23 23 20 20 19
5 5 6 10 15 8 11 8 8 5 4 6 4 4 5 5 8 7 8 8 7 9 10 13 13 12 12 15 15 16 21 25 22 21 24 26 23 23 21 21 22 21 21 20
6 10 7 14 7 7 13 6 3 5 4 2 3 5 3 4 8 6 9 10 9 8 11 13 14 15 15 17 20 19 20 22 23 20 19 19 21 20 19 19 16 12 14 11